Regional Weather Roundup
Issued by NWS

Home | Current Version | Previous Version | Graphics & Text | Print | Product List | Glossary On
Versions: 1 2 3 4 5 6 7 8 9 10 11 12 13 14 15 16 17 18 19 20 21 22 23 24 25 26 27 28 29 30 31 32 33 34 35 36 37 38 39 40 41 42 43 44 45 46 47 48 49 50
000
ASUS43 KIND 311609
RWRIN

WEATHER ROUNDUP FOR INDIANA
NATIONAL WEATHER SERVICE INDIANAPOLIS IN
1200 PM EDT FRI OCT 31 2014

NOTE: "FAIR" INDICATES FEW OR NO CLOUDS BELOW 12,000 FEET WITH NO
SIGNIFICANT WEATHER AND/OR OBSTRUCTIONS TO VISIBILITY.

* - STATION DOES NOT REPORT WEATHER SUCH AS PRECIPITATION OR FOG.

+ - STATION NOT QUALITY CONTROLLED BY THE NATIONAL WEATHER SERVICE.
    USE DATA WITH CAUTION...ESPECIALLY DEWPOINT AND RELATIVE
    HUMIDITY OBSERVATIONS.

INZ001>003-010>013-019-020-311700-
NORTHWEST INDIANA

CITY           SKY/WX    TMP DP  RH WIND       PRES   REMARKS
GARY /AIRPORT/ CLOUDY    41  32  70 NW35G49   30.10R
KNOX *+        CLOUDY    37  35  90 NW16G23   30.01F
LA PORTE +     LGT RAIN  40  36  86 NW26G46   30.00F
MICHIGAN CITY+ LGT RAIN  37  32  81 NW28G40   30.02S
MONTICELLO +   LGT RAIN  37  35  90 NW14G24   30.05R
RENSSELAER +   LGT SNOW  34  34 100 NW10G17   30.07F WCI  26
VALPARAISO     LGT SNOW  38  36  92 NW20G39   30.03  FOG

$$

LMZ046-743>745-311700-
SOUTHERN LAKE MICHIGAN

STATION/POSITION TIME  TEMP WIND        PRES
                       AIR  DIR/SP/G
                 (UTC) (F)  (DEG/KT/KT) (MB)
MICHIGAN CITY    1600   40  320/ 47/ 57   N/A

$$

INZ004-005-014>016-021>024-311700-
NORTH CENTRAL INDIANA

CITY           SKY/WX    TMP DP  RH WIND       PRES   REMARKS
GOSHEN         CLOUDY    39  36  89 NW10      29.94F
LOGANSPORT +   CLOUDY    39  34  81 NW14G22   30.02S
PERU/GRISSOM   LGT RAIN  39  39 100 NW21      29.99S
ROCHESTER +    LGT RAIN  41  37  87 NW10G18   30.00S
SOUTH BEND     LGT RAIN  40  36  86 NW22G33   29.95F
WARSAW +       LGT RAIN  37  36  93 NW10G17   29.96S

$$

INZ006>009-017-018-025>027-311700-
NORTHEAST INDIANA

CITY           SKY/WX    TMP DP  RH WIND       PRES   REMARKS
ANGOLA *+        N/A     41  36  81 NW9       29.91F
AUBURN +       CLOUDY    41  36  81 W8        29.93F
FORT WAYNE     LGT RAIN  41  38  89 NW9       29.95S
HUNTINGTON +   CLOUDY   N/A N/A N/A NW7       29.95F

$$

INZ028-029-035-036-043>045-051>053-311700-
WEST CENTRAL INDIANA

CITY           SKY/WX    TMP DP  RH WIND       PRES   REMARKS
GREENCASTLE +  CLOUDY    37  34  87 NW10G24   30.05S
LAFAYETTE      CLOUDY    40  31  70 NW15G26   30.06S
TERRE HAUTE    CLOUDY    40  31  70 N14G26    30.09R

$$

INZ030>032-037>040-046>048-054>057-064-065-311700-
CENTRAL INDIANA

CITY           SKY/WX    TMP DP  RH WIND       PRES   REMARKS
ANDERSON       LGT RAIN  39  37  93 NW17G29   29.99S
CP ATTERBURY + LGT RAIN  39  36  87 NW15G23   30.02R
COLUMBUS       CLOUDY    39  37  93 NW22G33   30.01R
FRANKFORT +    CLOUDY    41  36  83 W18       30.04S
GREENWOOD *+   CLOUDY    39  34  81 NW10G16   30.02
INDIANAPOLIS   LGT RAIN  39  35  86 NW14      30.02R
-EAGLE CREEK   LGT RAIN  40  36  86 NW15G22   30.02R
KOKOMO *+      CLOUDY    39  34  81 NW18G24   30.00S
MARION +       CLOUDY    40  36  86 NW18G25   29.98S FOG
MT COMFORT *+  CLOUDY    39  36  87 NW16G25   30.01R
SHELBYVILLE    LGT RAIN  42  36  79 NW22G29   29.99R
ZIONSVILLE +   LGT RAIN  39  35  83 NW14G20   30.02S

$$

INZ033-034-041-042-049-050-058-059-311700-
EAST CENTRAL INDIANA

CITY           SKY/WX    TMP DP  RH WIND       PRES   REMARKS
MUNCIE         LGT RAIN  40  37  89 NW18      29.97S

$$

INZ060-061-067>069-081>083-085>088-311700-
SOUTHWEST INDIANA

CITY           SKY/WX    TMP DP  RH WIND       PRES   REMARKS
EVANSVILLE     CLOUDY    43  37  79 NW15      30.11R
HUNTINGBURG *+ CLOUDY    43  36  75 N21G28    30.08R
WASHINGTON +   CLOUDY    42  38  87 NW17      30.07S

$$

INZ062-063-066-070>080-084-089>092-311700-
SOUTH CENTRAL AND SOUTHEAST INDIANA

CITY           SKY/WX    TMP DP  RH WIND       PRES   REMARKS
BEDFORD +      LGT RAIN  41  37  87 NW12G22   30.04R
BLOOMINGTON    LGT RAIN  39  36  89 N9G18     30.04S

$$




USA.gov is the U.S. government's official web portal to all federal, state and local government web resources and services.